Погода в Егорьевке

Россия / Оренбургская область     53°27′41″N   53°54′00″E
темп.,
°C
ветер,
м/с
пор.,
м/с
влажн.,
%
обл.,
%
осадки,
мм/ч
давл.,
гПа
погр.,
м
18 апреля, вс
вс1823:00+10св612570 0.0 1020287
02:00+8св511630 0.0 1019241
05:00+6св49645 0.0 1019182
08:00+6св510620 0.0 1019290
11:00+11св67430 0.0 1019565
14:00+13св66390 0.0 10191033
17:00+14св67360 0.0 10191369
20:00+11св610500 0.0 1019458
19 апреля, пн
пн1923:00+7св813710 0.0 1021501
02:00+4св813810 0.0 1022458
05:00+4всв6117541 0.0 1023502
08:00+3в71166100 0.0 1024719
11:00+3в81063100 0.0 1026830
14:00+4вюв7963100 0.0 1027967
17:00+8в6842100 0.0 10261532
20:00+7в6943100 0.0 1027559
20 апреля, вт
вт2023:00+3вюв6124529 0.0 1029480
02:00+1вюв611466 0.0 1031497
05:00−1в611480 0.0 1033517
08:000в710420 0.0 1034741
11:00+3вюв78310 0.0 10341116
14:00+6вюв68280 0.0 10331343
17:00+8вюв67270 0.0 10321504
20:00+6вюв36390 0.0 1032121
21 апреля, ср
ср2123:00+3юв38475 0.0 1033154
02:00+1юв385611 0.0 1033208
05:000юв3115847 0.0 1034275
08:00+2юв5114799 0.0 1035476
11:00+6юв793294 0.0 1034872
14:00+10ююв792881 0.0 10321138
17:00+11ююв7927100 0.0 10311370
20:00+8ююв51040100 0.0 1031315
22 апреля, чт
чт2223:00+6ююв5114999 0.0 1032286
02:00+4юв41255100 0.0 1033295
05:00+4ююв51158100 0.0 1034298
08:00+5ююв51258100 0.0 1034428
11:00+8ююв71042100 0.0 1034798
14:00+10ю71036100 0.0 10341203
17:00+12ю793277 0.0 10331650
20:00+10ююв3547100 0.0 1033112